Regional Weather Roundup
Issued by NWS

Home | Current Version | Previous Version | Graphics & Text | Print | Product List | Glossary On
Versions: 1 2 3 4 5 6 7 8 9 10 11 12 13 14 15 16 17 18 19 20 21 22 23 24 25 26 27
000
ASUS45 KBOU 241807
RWRCO

WEATHER ROUNDUP FOR COLORADO
NATIONAL WEATHER SERVICE DENVER/BOULDER CO
1200 PM MDT FRI MAR 24 2017

NOTE: "FAIR" INDICATES FEW OR NO CLOUDS BELOW 12000 FEET WITH NO
SIGNIFICANT WEATHER AND/OR OBSTRUCTIONS TO VISIBILITY.

COZ001>005-013-030-031-241900-
...NORTHWEST COLORADO...

CITY           SKY/WX    TMP DP  RH WIND       PRES   REMARKS
CRAIG          FAIR      51  27  39 N8        30.19R
HAYDEN         PTSUNNY   45  25  45 W5        30.19R
MEEKER         CLOUDY    45  29  53 W6        30.21R
MOUNT WERNER   NOT AVBL
STEAMBOAT SPGS CLOUDY    42  26  52 W6        30.19R
WALDEN         NOT AVBL
$$

COZ006>008-011-241900-
...WEST CENTRAL VALLEYS...

CITY           SKY/WX    TMP DP  RH WIND       PRES   REMARKS
GRAND JUNCTION FAIR      55  30  38 NW6       30.19R
MONTROSE       CLOUDY    50  30  46 NW9       30.19R
EAGLE          PTSUNNY   48  23  37 NW7G16    30.18R
RIFLE          FAIR      52  28  39 N10       30.17R
DELTA          FAIR      58  28  31 W15       30.15S
NUCLA          FAIR      50  28  43 N8        30.21R
$$

COZ017>023-064>068-241900-
...SOUTHWEST COLORADO...

CITY           SKY/WX    TMP DP  RH WIND       PRES   REMARKS
DURANGO        FAIR      54  23  30 NW16G24   30.06R
CORTEZ         FAIR      51  31  46 N17G25    30.14S
PAGOSA SPRINGS CLOUDY    38  35  88 CALM      30.11R
TELLURIDE      FAIR      34  28  79 SW5       30.20R WCI  30
WOLF CREEK PAS FAIR      30  19  64 NE5       30.20R WCI  25
$$

COZ009-010-012-014-032>034-037-058>063-241900-
...CENTRAL COLORADO...

CITY           SKY/WX    TMP DP  RH WIND       PRES   REMARKS
ASPEN          PTSUNNY   41  32  70 NE7       30.16R
BUENA VISTA    FAIR      49  15  26 NW26G35   30.06R
COPPER MTN     CLOUDY    27  21  80 MISG      30.18R
BERTHOUD PASS  CLOUDY    18   7  62 NW5       30.19R WCI  11
COTTONWOOD PAS FAIR      46  14  27 CALM      30.10R
GUNNISON       FAIR      45  20  36 N10       30.12R
KREMMLING      PTSUNNY   45  25  45 NW14G22   30.18R
LEADVILLE      CLOUDY    33  16  49 N12G24    30.14R WCI  24
MONARCH PASS   FAIR      27  21  80 W9        30.25R WCI  17
SALIDA         CLOUDY    50  20  30 N16G26    30.13R
SUNLIGHT       PTSUNNY  N/A N/A N/A N5        30.26R FOG
WILKERSON PASS   N/A     25  23  93 NE14G29   30.15R WCI  13
$$

COZ069>075-241900-
...SAN LUIS VALLEY/SANGRE DE CRISTO MOUNTAINS...

CITY           SKY/WX    TMP DP  RH WIND       PRES   REMARKS
ALAMOSA        FAIR      48  27  44 N28G36    30.02R
LA VETA PASS   NOT AVBL
SAGUACHE       PTSUNNY   45  28  53 N17G26    30.06R
$$

COZ035-036-038>040-241900-
...NORTHERN COLORADO FRONT RANGE...

CITY           SKY/WX    TMP DP  RH WIND       PRES   REMARKS
DENVER INTL AP LGT RAIN  43  34  70 N21       30.12R
DMNS CITY PARK   N/A     48  30  50 N12G26    30.12S
AURORA         LGT RAIN  42  35  74 N21       30.13R
FRONT RANGE AP CLOUDY    41  36  81 N18G30    30.13R
ERIE MUNI ARPT CLOUDY    51  28  41 N23G30    30.11S
BOULDER MUN AP CLOUDY    52  27  37 N15G22    30.11R
CENTENNIAL     LGT RAIN  41  31  67 N21G28    30.12R
BROOMFIELD     PTSUNNY   50  28  43 N14G29    30.13R
FORT COLLINS   CLOUDY    51  28  41 N23       30.12R
LONGMONT       CLOUDY    55  27  34 N14G22    30.13R
$$

COZ041-046-047-076>085-087-088-241900-
...PIKES PEAK/PALMER DIVIDE AND SOUTHERN FOOTHILLS...

CITY           SKY/WX    TMP DP  RH WIND       PRES   REMARKS
COLO. SPRINGS  PTSUNNY   39  30  70 N36G46    30.06R
A. F. ACADEMY  LGT RAIN  37  28  70 N28G40    30.07R
SCHRIEVER AFB  LGT RAIN  37  30  78 N30G40    30.06
ELLICOTT       NOT AVBL
FALCON         LGT SNOW  36  31  81 N35G54    30.03R
FORT CARSON    CLOUDY    45  28  53 N39G54    30.05R
LIMON          MIX PCPN  34  34 100 N33G41    30.04  FOG     WCI  20
MONUMENT HILL  CLOUDY    32  30  93 N21G30    30.12R FOG     WCI  20
TRINIDAD       NOT AVBL
$$

COZ042>045-048>051-090-091-241900-
...NORTHEAST COLORADO...

CITY           SKY/WX    TMP DP  RH WIND       PRES   REMARKS
GREELEY ARPT   CLOUDY    50  31  48 N28       30.13R
AKRON          CLOUDY    39  35  86 N30G40    30.06R
BURLINGTON     RAIN      39  37  92 N30G41    29.96R FOG
WRAY           LGT RAIN  43  39  87 N29G38    29.99R
STERLING       CLOUDY    46  37  71 N23G38    30.07R
HOLYOKE        PTSUNNY   43  37  81 N31G40    30.02R
FORT MORGAN    CLOUDY    47  33  57 N24G35    30.11R
$$

COZ086-089-092>099-241900-
...SOUTHEAST COLORADO...

CITY           SKY/WX    TMP DP  RH WIND       PRES   REMARKS
PUEBLO         CLOUDY    47  32  56 N38G52    30.06R
LA JUNTA       LGT SNOW  38  35  89 N39G52    29.99R FOG
LAMAR          PTSUNNY   45  35  68 N33G44    29.88R
SPRINGFIELD      N/A     42  35  76 N40G55    29.83R
$$




USA.gov is the U.S. government's official web portal to all federal, state and local government web resources and services.